User: anonymous   Login
Location: Unnamed
(42.1164°N, 2.7652°E)
Time: 17:46:46
(UTC+02:00)
Language:

SO-50 - Orbit

View from above orbital plane
View from above orbital plane
View from above satellite
View from above satellite

Ground track
Ground track

The orbit data is extracted from the following two-line orbital elements,

1 27607U 02058C   21295.42652810  .00000133  00000-0  39431-4 0  9995
2 27607  64.5548 310.0497 0056503 344.6777  15.2612 14.75807338 13240
Epoch (UTC): 22 October 2021 10:14:12
Eccentricity: 0.0056503
inclination: 64.5548°
perigee height: 603 km
apogee height: 682 km
right ascension of ascending node: 310.0497°
argument of perigee: 344.6777°
revolutions per day: 14.75807338
mean anomaly at epoch: 15.2612°
orbit number at epoch: 1324

The dashed part of the orbit path shows where the satellite is in the earth's shadow,  

DLR